Location: Namasale
(1.5000°N, 32.6167°E)
Time: 04:54:24
(UTC+00:00)

Hubble Space Telescope - Pass Details

Date: 05 December 2021
Orbit: 534 x 538 km, 28.5° (Epoch: 19 January)

Event Time Altitude Azimuth Distance (km) Brightness Sun altitude
Rises 16:56:40 0° 227° (SW) 2,674 5.7 -18.2°
Reaches altitude 10° 16:59:03 10° 219° (SW) 1,782 4.3 -18.7°
Maximum altitude 17:02:54 38° 150° (SSE) 824 1.6 -19.6°
Enters shadow 17:03:34 35° 126° (SE) 869 1.5 -19.8°
